Regional Weather Roundup
Issued by NWS

Home | Current Version | Previous Version | Graphics & Text | Print | Product List | Glossary On
Versions: 1 2 3 4 5 6 7 8 9 10 11 12 13 14 15 16 17 18 19 20 21 22 23 24 25 26 27 28 29 30 31 32 33 34 35 36 37 38 39 40 41 42 43 44 45 46 47 48 49 50
805
ASUS43 KTOP 070459
RWRKS

WEATHER ROUNDUP FOR KANSAS
NATIONAL WEATHER SERVICE GOODLAND KS
1100 PM CST TUE DEC 06 2016

NOTE:  "FAIR" INDICATES FEW OR NO CLOUDS BELOW 12,000 FEET WITH NO
SIGNIFICANT WEATHER AND/OR OBSTRUCTIONS TO VISIBILITY.

KSZ001>006-013>018-027>032-041>047-070600-
NORTHWEST KANSAS

CITY           SKY/WX    TMP DP  RH WIND       PRES   REMARKS
GOODLAND       CLOUDY    23   4  44 E6        29.98S
HAYS           MOCLDY    28  19  69 NE5       30.10S
HILL CITY      CLOUDY    20  11  68 N3        30.09S
RUSSELL        CLOUDY    30  16  56 SE6       30.09S
$$

KSZ061>065-074>080-084>089-070600-
SOUTHWEST KANSAS

CITY           SKY/WX    TMP DP  RH WIND       PRES   REMARKS
DODGE CITY     PTCLDY    24  13  62 E6        30.05F
ELKHART          N/A     16   0  49 SE12        N/A  WCI   3
GARDEN CITY    CLEAR     20   9  62 E9        30.01F
GREAT BEND     CLOUDY    31  19  61 CALM      30.10S
LIBERAL        CLEAR     27   9  46 SE12      29.98F WCI  16
$$

KSZ066>073-081>083-090>101-070600-
SOUTHEAST KANSAS

CITY           SKY/WX    TMP DP  RH WIND       PRES   REMARKS
CHANUTE        CLOUDY    32  23  69 CALM      30.13F
COFFEYVILLE    PTCLDY    33  21  61 E5        30.14F
HUTCHINSON     CLOUDY    31  24  75 CALM      30.12S
NEWTON         CLOUDY    32  19  58 E3        30.14R
PARSONS        CLOUDY    34  19  54 NE3       30.14F
WICHITA INTL   CLOUDY    35  21  56 CALM      30.13R
WICHITA JABRA  CLOUDY    32  20  61 NE6       30.12R
WINFIELD       MOCLDY    33  20  58 N3        30.14R
$$

KSZ007>012-019>026-033>040-048>060-102>105-070600-
NORTHEAST KANSAS

CITY           SKY/WX    TMP DP  RH WIND       PRES   REMARKS
CONCORDIA      CLOUDY    27  19  72 N5        30.14R
EMPORIA        CLOUDY    29  20  69 CALM      30.12F
LAWRENCE       CLOUDY    27  21  78 W5        30.15S
MANHATTAN      CLOUDY    27  21  78 CALM      30.15R
OLATHE IND     CLOUDY    31  16  54 N10       30.13F WCI  22
OLATHE EXE     CLOUDY    32  14  47 N5        30.13S
SALINA         CLOUDY    31  19  61 CALM      30.15R
TOPEKA BILLARD CLOUDY    28  22  78 SW3       30.15R
TOPEKA FORBES  CLOUDY    30  21  69 NW3       30.14R
$$




USA.gov is the U.S. government's official web portal to all federal, state and local government web resources and services.